Zurück zum Katalog

OPS 1127

DMSP 4B F3

AktivWetterSSO
NORAD 4047·PAYLOAD·🇺🇸 United States

Gestartet Jul 23, 1969 von Vandenberg Space Force Base

Loading…

Nächste Überflüge (nächste 24 Stunden)

TLE

AktuellSource: Space-Track

Epoche: Sep 14, 2026, 12:23 UTC

1 04047U 69062A   26257.51603446  .00000044  00000-0  33244-4 0  9997
2 04047  98.4123 109.8787 0043840 352.6129   7.4403 14.29534192974098

Verfolge OPS 1127 in Echtzeit mit AllMySat

Download on the App Store